OPS 9311

operational
NORAD ID: 2215 Int'l Des: 1966-053 Owner: AFSSD Country: US
MEOCIRCULAR

OPS 9311について

説明を読み込み中...

リアルタイム位置

3D地球を読み込み中...

次回通過

高度履歴

Altitude vs Time

uPlot chart will show altitude changes over time

軌道要素

1 02215U 66053B 26059.38960363 -.00000124 00000-0 00000-0 0 9998
2 02215 8.4709 44.6845 0031629 224.2209 135.6286 1.07909216133196
Epoch: Feb 28, 2026 • Age: 100 hours

現在のステータス

高度 33893.4 km
速度 3.14 km/s
衛星直下点 3.99°N, 150.16°W
タイプ other

大規模コンステレーション

Loading constellations...